When you browse on this site, cookies collect data to enhance your experience and personalize the content and advertising you see.
Visit our Privacy Policy to learn more. By continuing to use the site, you agree to this use of cookies and data.
  • In Österreich
  • Länderverzeichnis
  • Für 7 Tage
  • Wassertemperatur
  • Satellitenkarten
  • Wetterkarte
  • News
  • Widgets
  • user-avatar
    Anmelden

    Stündliche Wetter Mendoza

    Heute, 16 Februar, Samstag

    Zeit Temperatur Niederschläge Wind Luftdruck Luftfeuchtigkeit
    00:00 +27°C° 0 mm 2 m/S 699 mmHg 30%
    01:00 +27°C° 0 mm 2 m/S 699 mmHg 32%
    02:00 +26°C° 0 mm 2 m/S 699 mmHg 34%
    03:00 +26°C° 0 mm 2 m/S 699 mmHg 36%
    04:00 +25°C° 0 mm 2 m/S 698 mmHg 38%
    05:00 +26°C° 0 mm 2 m/S 699 mmHg 37%
    06:00 +27°C° 0 mm 2 m/S 699 mmHg 36%
    07:00 +28°C° 0 mm 2 m/S 699 mmHg 35%
    08:00 +29°C° 0 mm 2 m/S 699 mmHg 32%
    09:00 +31°C° 0 mm 2 m/S 699 mmHg 28%
    10:00 +32°C° 0 mm 2 m/S 699 mmHg 25%
    11:00 +34°C° 0 mm 3 m/S 699 mmHg 22%
    12:00 +36°C° 0 mm 4 m/S 699 mmHg 20%
    13:00 +37°C° 0 mm 5 m/S 699 mmHg 17%
    14:00 +37°C° 0 mm 5 m/S 698 mmHg 17%
    15:00 +37°C° 0 mm 5 m/S 698 mmHg 17%
    16:00 +37°C° 0 mm 4 m/S 697 mmHg 17%
    17:00 +36°C° 0 mm 4 m/S 698 mmHg 19%
    18:00 +35°C° 0 mm 3 m/S 698 mmHg 21%
    19:00 +32°C° 0 mm 2 m/S 698 mmHg 23%
    20:00 +31°C° 0 mm 2 m/S 698 mmHg 26%
    21:00 +31°C° 0 mm 3 m/S 698 mmHg 29%
    22:00 +30°C° 0 mm 3 m/S 698 mmHg 32%
    23:00 +29°C° 0 mm 2 m/S 698 mmHg 34%

    Morgen, 17 Februar, Sonntag

    Zeit Temperatur Niederschläge Wind Luftdruck Luftfeuchtigkeit
    00:00 +28°C° 0 mm 1 m/S 698 mmHg 36%
    01:00 +28°C° 0 mm 1 m/S 697 mmHg 38%
    02:00 +27°C° 0 mm 1 m/S 697 mmHg 39%
    03:00 +26°C° 0 mm 1 m/S 697 mmHg 39%
    04:00 +26°C° 0 mm 1 m/S 697 mmHg 40%
    05:00 +27°C° 0 mm 1 m/S 697 mmHg 38%
    06:00 +28°C° 0 mm 1 m/S 697 mmHg 36%
    07:00 +29°C° 0 mm 1 m/S 698 mmHg 34%
    08:00 +30°C° 0 mm 2 m/S 698 mmHg 31%
    09:00 +32°C° 0 mm 2 m/S 698 mmHg 29%
    10:00 +34°C° 0 mm 3 m/S 698 mmHg 26%
    11:00 +35°C° 0 mm 3 m/S 697 mmHg 24%
    12:00 +36°C° 0 mm 4 m/S 697 mmHg 23%
    13:00 +37°C° 0 mm 4 m/S 696 mmHg 22%
    14:00 +37°C° 0 mm 4 m/S 696 mmHg 22%
    15:00 +37°C° 0 mm 4 m/S 695 mmHg 21%
    16:00 +37°C° 0 mm 4 m/S 695 mmHg 21%
    17:00 +36°C° 0 mm 3 m/S 695 mmHg 23%
    18:00 +34°C° 0 mm 2 m/S 695 mmHg 25%
    19:00 +32°C° 0 mm 1 m/S 695 mmHg 26%
    20:00 +32°C° 0 mm 2 m/S 696 mmHg 28%
    21:00 +31°C° 0 mm 2 m/S 696 mmHg 29%
    22:00 +30°C° 0 mm 2 m/S 696 mmHg 31%
    23:00 +30°C° 0 mm 2 m/S 696 mmHg 33%

    übermorgen, 18 Februar, Montag

    Zeit Temperatur Niederschläge Wind Luftdruck Luftfeuchtigkeit
    00:00 +29°C° 0 mm 2 m/S 695 mmHg 34%
    01:00 +28°C° 0 mm 1 m/S 695 mmHg 36%
    02:00 +28°C° 0 mm 2 m/S 695 mmHg 37%
    03:00 +27°C° 0 mm 2 m/S 695 mmHg 38%
    04:00 +27°C° 0 mm 2 m/S 695 mmHg 39%
    05:00 +28°C° 0 mm 2 m/S 695 mmHg 38%
    06:00 +29°C° 0 mm 2 m/S 696 mmHg 37%
    07:00 +30°C° 0 mm 2 m/S 697 mmHg 36%
    08:00 +31°C° 0 mm 2 m/S 697 mmHg 33%
    09:00 +32°C° 0 mm 2 m/S 697 mmHg 30%
    10:00 +35°C° 0 mm 2 m/S 697 mmHg 28%
    11:00 +36°C° 0 mm 3 m/S 697 mmHg 26%
    12:00 +37°C° 0 mm 3 m/S 696 mmHg 25%
    13:00 +38°C° 0 mm 3 m/S 696 mmHg 23%
    14:00 +38°C° 0 mm 3 m/S 696 mmHg 22%
    15:00 +38°C° 0 mm 3 m/S 696 mmHg 22%
    16:00 +38°C° 0 mm 4 m/S 696 mmHg 21%
    17:00 +37°C° 0.1 mm 3 m/S 696 mmHg 23%
    18:00 +36°C° 0.1 mm 2 m/S 696 mmHg 25%
    19:00 +34°C° 0.1 mm 2 m/S 696 mmHg 27%
    20:00 +34°C° 0 mm 2 m/S 697 mmHg 28%
    21:00 +32°C° 0 mm 2 m/S 697 mmHg 28%
    22:00 +33°C° 0 mm 3 m/S 698 mmHg 28%
    23:00 +31°C° 0 mm 2 m/S 697 mmHg 31%

    19 Februar, Dienstag

    Zeit Temperatur Niederschläge Wind Luftdruck Luftfeuchtigkeit
    00:00 +30°C° 0 mm 1 m/S 697 mmHg 34%
    01:00 +29°C° 0 mm 1 m/S 697 mmHg 37%
    02:00 +29°C° 0 mm 3 m/S 697 mmHg 37%
    03:00 +29°C° 0 mm 4 m/S 697 mmHg 37%
    04:00 +28°C° 0 mm 6 m/S 697 mmHg 37%
    05:00 +28°C° 0 mm 6 m/S 697 mmHg 33%
    06:00 +28°C° 0 mm 6 m/S 697 mmHg 29%
    07:00 +28°C° 0 mm 6 m/S 698 mmHg 25%
    08:00 +30°C° 0 mm 5 m/S 698 mmHg 25%
    09:00 +32°C° 0 mm 5 m/S 698 mmHg 24%
    10:00 +33°C° 0 mm 4 m/S 697 mmHg 23%
    11:00 +34°C° 0 mm 3 m/S 697 mmHg 22%
    12:00 +35°C° 0 mm 3 m/S 696 mmHg 22%
    13:00 +36°C° 0 mm 3 m/S 695 mmHg 21%
    14:00 +37°C° 0 mm 3 m/S 695 mmHg 21%
    15:00 +37°C° 0 mm 4 m/S 694 mmHg 21%
    16:00 +37°C° 0 mm 4 m/S 694 mmHg 21%
    17:00 +36°C° 0 mm 3 m/S 694 mmHg 24%
    18:00 +35°C° 0 mm 2 m/S 694 mmHg 26%
    19:00 +34°C° 0 mm 2 m/S 694 mmHg 29%
    20:00 +32°C° 0 mm 1 m/S 695 mmHg 31%
    21:00 +32°C° 0 mm 1 m/S 695 mmHg 33%
    22:00 +31°C° 0 mm 1 m/S 695 mmHg 35%
    23:00 +30°C° 0 mm 1 m/S 695 mmHg 36%

    20 Februar, Mittwoch

    Zeit Temperatur Niederschläge Wind Luftdruck Luftfeuchtigkeit
    00:00 +30°C° 0 mm 1 m/S 694 mmHg 37%
    01:00 +29°C° 0 mm 1 m/S 694 mmHg 39%
    02:00 +28°C° 0 mm 1 m/S 694 mmHg 39%
    03:00 +28°C° 0 mm 1 m/S 694 mmHg 39%
    04:00 +27°C° 0 mm 1 m/S 694 mmHg 39%
    05:00 +28°C° 0 mm 1 m/S 694 mmHg 37%
    06:00 +29°C° 0 mm 2 m/S 695 mmHg 36%
    07:00 +31°C° 0 mm 2 m/S 695 mmHg 34%
    08:00 +33°C° 0 mm 3 m/S 695 mmHg 32%
    09:00 +34°C° 0 mm 3 m/S 695 mmHg 31%
    10:00 +35°C° 0 mm 3 m/S 695 mmHg 30%
    11:00 +36°C° 0 mm 3 m/S 695 mmHg 28%
    12:00 +37°C° 0 mm 3 m/S 694 mmHg 26%
    13:00 +37°C° 0 mm 3 m/S 694 mmHg 25%
    14:00 +38°C° 0 mm 2 m/S 694 mmHg 25%
    15:00 +38°C° 0 mm 2 m/S 693 mmHg 24%
    16:00 +38°C° 0 mm 2 m/S 693 mmHg 24%
    17:00 +37°C° 0 mm 2 m/S 693 mmHg 25%
    18:00 +37°C° 0 mm 3 m/S 694 mmHg 27%
    19:00 +36°C° 0 mm 3 m/S 694 mmHg 28%
    20:00 +35°C° 0.1 mm 5 m/S 695 mmHg 30%
    21:00 +34°C° 0.1 mm 7 m/S 696 mmHg 32%
    22:00 +33°C° 0.1 mm 9 m/S 696 mmHg 34%
    23:00 +31°C° 0.3 mm 9 m/S 696 mmHg 44%

    21 Februar, Donnerstag

    Zeit Temperatur Niederschläge Wind Luftdruck Luftfeuchtigkeit
    00:00 +28°C° 0.3 mm 8 m/S 696 mmHg 55%
    01:00 +26°C° 0.3 mm 7 m/S 696 mmHg 65%
    02:00 +26°C° 0 mm 6 m/S 697 mmHg 67%
    03:00 +25°C° 0 mm 5 m/S 697 mmHg 70%
    04:00 +25°C° 0 mm 5 m/S 697 mmHg 72%
    05:00 +25°C° 0 mm 5 m/S 698 mmHg 64%
    06:00 +26°C° 0 mm 6 m/S 698 mmHg 56%
    07:00 +27°C° 0 mm 6 m/S 699 mmHg 48%
    08:00 +28°C° 0 mm 6 m/S 699 mmHg 44%
    09:00 +29°C° 0 mm 6 m/S 700 mmHg 40%
    10:00 +30°C° 0 mm 6 m/S 700 mmHg 36%
    11:00 +32°C° 0 mm 6 m/S 699 mmHg 34%
    12:00 +32°C° 0 mm 6 m/S 699 mmHg 33%
    13:00 +33°C° 0 mm 5 m/S 699 mmHg 31%
    14:00 +33°C° 0 mm 5 m/S 698 mmHg 30%
    15:00 +33°C° 0 mm 5 m/S 698 mmHg 28%
    16:00 +33°C° 0 mm 4 m/S 698 mmHg 27%
    17:00 +31°C° 0 mm 3 m/S 698 mmHg 28%
    18:00 +30°C° 0 mm 3 m/S 699 mmHg 28%
    19:00 +29°C° 0 mm 2 m/S 699 mmHg 29%
    20:00 +29°C° 0 mm 2 m/S 700 mmHg 30%
    21:00 +28°C° 0 mm 2 m/S 700 mmHg 31%
    22:00 +28°C° 0 mm 3 m/S 700 mmHg 32%
    23:00 +27°C° 0 mm 3 m/S 700 mmHg 34%
    Mehr zeigen